Location: Adair
(33.3137°N, 90.0906°W)
Time: 00:43:41
(UTC+00:00)

ISS - Pass Details

Date: 09 May 2026
Orbit: 415 x 423 km, 51.6° (Epoch: 10 June)

Event Time Altitude Azimuth Distance (km) Brightness Sun altitude
Rises 02:22:33 0° 244° (WSW) 2,341 0.4 -18.1°
Reaches altitude 10° 02:24:45 10° 253° (WSW) 1,481 -0.5 -18.4°
Maximum altitude 02:27:49 34° 321° (NW) 697 -2.0 -18.9°
Drops below altitude 10° 02:30:55 10° 29° (NNE) 1,487 -0.9 -19.5°
Enters shadow 02:35:02 -6° 43° (NE) 3,120 0.6 -20.1°
